Location: *
(50.2903°S, 172.5375°W)
Time: 07:04:14
(UTC+00:00)

SL-8 Rocket - Pass Details

Date: 17 November 2019
Orbit: 958 x 990 km, 82.9° (Epoch: 06 December)

Event Time Altitude Azimuth Distance (km) Brightness Sun altitude
Rises 13:10:49 0° 193° (SSW) 3,714 7.8 -16.2°
Reaches altitude 10° 13:13:24 10° 197° (SSW) 2,755 7.0 -16.0°
Maximum altitude 13:19:30 53° 271° (W) 1,185 4.2 -15.5°
Enters shadow 13:23:30 21° 340° (NNW) 2,011 5.0 -15.2°
